Location: Chand?puram
(16.7564°N, 80.2764°E)
Time: 15:06:33
(UTC+00:00)

GOES 2 Rocket - Pass Details

Date: 15 November 2025
Orbit: 569 x 1658 km, 28.4° (Epoch: 12 December)

Event Time Altitude Azimuth Distance (km) Brightness Sun altitude
Exits shadow 00:20:21 - 266° (W) 2,265 5.4 -6.0°
Reaches altitude 10° 00:21:25 10° 270° (W) 1,856 4.9 -5.7°
Maximum altitude 00:25:21 41° 341° (NNW) 836 3.5 -4.8°
Drops below altitude 10° 00:29:30 10° 52° (NE) 1,960 6.1 -3.9°
Sets 00:32:05 0° 60° (ENE) 2,965 7.2 -3.3°
